Pamplona, Spain

5:56 AM CET on February 07, 2016 (GMT +0100)
Pamplona

Weather History for LEPP - January, 2013

Change the Weather History Date:

Monday, January 21, 2013

  Actual Average Record
Temperature  
Mean Temperature 38 °F -  
Max Temperature 44 °F 47 °F 55 °F (1997)
Min Temperature 33 °F 34 °F 26 °F (2016)
Degree Days  
Heating Degree Days 26    
Moisture  
Dew Point 34 °F    
Average Humidity 79    
Maximum Humidity 93    
Minimum Humidity 57    
Precipitation  
Precipitation 0.00 in - - ()
Sea Level Pressure  
Sea Level Pressure 29.74 in    
Wind  
Wind Speed 7 mph ()    
Max Wind Speed 16 mph    
Max Gust Speed 29 mph    
Visibility 6.2 miles    
Events Rain    
Averages and records for this station are not official NWS values.
T = Trace of Precipitation, MM = Missing Value Source: Averaged Metar Reports

Daily Weather History Graph

Daily Weather History Graph

Search for Another Location

Airport or City:

Trip Planner

Search our weather history database for the weather conditions in past years. The results will help you decide how hot, cold, wet, or windy it might be!

Date:

Astronomy

Jan. 21, 2013 Rise Set
Actual Time 8:30 AM CET 6:05 PM CET
Civil Twilight 7:59 AM CET 6:36 PM CET
Nautical Twilight 7:25 AM CET 7:10 PM CET
Astronomical Twilight 6:51 AM CET 7:44 PM CET
Moon 1:35 PM CET (1/21) 3:45 AM CET (1/21)
Length of Visible Light 10h 36m
Length of Day
9h 34m
Waxing Gibbous, 73% of the Moon is Illuminated
Jan 21
Waxing Gibbous
Jan 27
Full
Feb 3
Last Quarter
Feb 10
New
Feb 17
First Quarter

Hourly Weather History & Observations

Time (CET) Temp. Windchill Dew Point Humidity Pressure Visibility Wind Dir Wind Speed Gust Speed Precip Events Conditions
12:00 AM 41.0 °F 39.0 °F 39.2 °F 93% 29.53 in 6.2 mi ESE 3.5 mph - N/A Rain Light Rain
5:30 AM 41.0 °F - 39.2 °F 93% 29.59 in 6.2 mi Variable 1.2 mph - N/A Rain Rain
6:00 AM 41.0 °F - 39.2 °F 93% 29.59 in 6.2 mi Variable 2.3 mph - N/A Rain Rain
6:30 AM 41.0 °F 35.2 °F 37.4 °F 87% 29.59 in 6.2 mi NNW 9.2 mph - N/A Rain Rain
7:30 AM 41.0 °F 35.2 °F 35.6 °F 81% 29.62 in 6.2 mi NW 9.2 mph - N/A   Overcast
8:00 AM 41.0 °F 35.8 °F 35.6 °F 81% 29.65 in 6.2 mi NNW 8.1 mph - N/A   Overcast
8:30 AM 41.0 °F 33.9 °F 35.6 °F 81% 29.65 in 6.2 mi NW 12.7 mph - N/A   Overcast
9:00 AM 41.0 °F 35.2 °F 35.6 °F 81% 29.68 in 6.2 mi NW 9.2 mph - N/A   Overcast
9:30 AM 41.0 °F 35.8 °F 37.4 °F 87% 29.68 in 6.2 mi North 8.1 mph - N/A   Mostly Cloudy
10:00 AM 41.0 °F 36.4 °F 35.6 °F 81% 29.71 in 6.2 mi North 6.9 mph - N/A   Mostly Cloudy
10:30 AM 41.0 °F 32.8 °F 35.6 °F 81% 29.71 in 6.2 mi NW 16.1 mph 27.6 mph N/A   Mostly Cloudy
11:00 AM 41.0 °F 34.3 °F 35.6 °F 81% 29.74 in 6.2 mi NNW 11.5 mph - N/A   Mostly Cloudy
11:30 AM 41.0 °F 36.4 °F 35.6 °F 81% 29.74 in 6.2 mi NNW 6.9 mph - N/A   Mostly Cloudy
12:00 PM 44.6 °F 39.2 °F 33.8 °F 66% 29.74 in 6.2 mi WNW 10.4 mph 24.2 mph N/A   Mostly Cloudy
1:00 PM 44.6 °F 38.1 °F 33.8 °F 66% 29.74 in 6.2 mi NW 13.8 mph 28.8 mph N/A   Mostly Cloudy
1:30 PM 44.6 °F 37.4 °F 35.6 °F 71% 29.74 in 6.2 mi NW 16.1 mph 28.8 mph N/A   Mostly Cloudy
2:00 PM 44.6 °F 37.8 °F 33.8 °F 66% 29.74 in 6.2 mi NW 15.0 mph - N/A   Mostly Cloudy
2:30 PM 44.6 °F 38.4 °F 30.2 °F 57% 29.77 in 6.2 mi WNW 12.7 mph - N/A   Mostly Cloudy
3:00 PM 42.8 °F 36.6 °F 33.8 °F 70% 29.77 in 6.2 mi NW 11.5 mph - N/A   Mostly Cloudy
3:30 PM 42.8 °F 36.6 °F 32.0 °F 66% 29.77 in 6.2 mi NW 11.5 mph 23.0 mph N/A   Mostly Cloudy
4:00 PM 42.8 °F 36.2 °F 33.8 °F 70% 29.77 in 6.2 mi NNW 12.7 mph - N/A   Mostly Cloudy
4:30 PM 42.8 °F 36.2 °F 33.8 °F 70% 29.80 in 6.2 mi NNW 12.7 mph - N/A   Mostly Cloudy
5:00 PM 42.8 °F 36.6 °F 35.6 °F 76% 29.80 in 6.2 mi NNW 11.5 mph - N/A   Scattered Clouds
5:30 PM 42.8 °F 38.0 °F 33.8 °F 70% 29.80 in 6.2 mi NW 8.1 mph - N/A   Scattered Clouds
6:00 PM 42.8 °F 40.1 °F 32.0 °F 66% 29.80 in 6.2 mi WNW 4.6 mph - N/A   Scattered Clouds
6:30 PM 39.2 °F - 32.0 °F 75% 29.80 in 6.2 mi Variable 1.2 mph - N/A   Scattered Clouds
7:00 PM 41.0 °F - 32.0 °F 70% 29.80 in - NNW 1.2 mph - N/A   Clear
7:30 PM 39.2 °F - 32.0 °F 75% 29.83 in - SW 1.2 mph - N/A   Clear
8:00 PM 35.6 °F - 32.0 °F 87% 29.83 in - SE 2.3 mph - N/A   Clear
8:30 PM 37.4 °F 33.8 °F 32.0 °F 81% 29.83 in - SSE 4.6 mph - N/A   Clear
9:00 PM 35.6 °F - 32.0 °F 87% 29.83 in 6.2 mi Variable 1.2 mph - N/A   Scattered Clouds
9:30 PM 33.8 °F 30.8 °F 32.0 °F 93% 29.83 in 6.2 mi South 3.5 mph - N/A   Scattered Clouds
10:00 PM 33.8 °F - 32.0 °F 93% 29.83 in 6.2 mi Variable 2.3 mph - N/A   Scattered Clouds
10:30 PM 33.8 °F - 32.0 °F 93% 29.83 in 6.2 mi South 2.3 mph - N/A   Scattered Clouds
11:00 PM 33.8 °F - 32.0 °F 93% 29.83 in 6.2 mi Calm Calm - N/A   Scattered Clouds
11:30 PM 33.8 °F 30.8 °F 32.0 °F 93% 29.80 in 6.2 mi SE 3.5 mph - N/A   Scattered Clouds